Terminal Aerodrome Forecast
Issued by NWS

Home | Current Version | Previous Version | Text Only | Print | Product List | Glossary On
Versions: 1 2 3 4 5 6 7 8 9 10 11 12 13 14 15 16 17 18
000
FTUS43 KILX 031145
TAFBMI
TAF
KBMI 031145Z 0312/0412 05009KT P6SM VCSH SCT050
     FM031500 05009KT P6SM SCT025 BKN035
     FM032100 04009KT P6SM SCT100
     FM040900 VRB03KT 2SM BR SKC=

USA.gov is the U.S. government's official web portal to all federal, state and local government web resources and services.